User: anonymous   Login
Location: Bathurst
(33.4193°S, 149.5775°E)
Time: 20:17:00
(UTC+10:00)
Language:

Transit 2A Rocket - Orbit

View from above orbital plane
View from above orbital plane
View from above satellite
View from above satellite

Ground track
Ground track

The orbit data is extracted from the following two-line orbital elements,

1 00047U 60007C   21163.63881037 -.00000066  00000-0  10141-4 0  9997
2 00047  66.6664 271.8849 0222777  38.1888 323.4762 14.42154487186618
Epoch (UTC): 12 June 2021 15:19:53
Eccentricity: 0.0222777
inclination: 66.6664°
perigee height: 592 km
apogee height: 910 km
right ascension of ascending node: 271.8849°
argument of perigee: 38.1888°
revolutions per day: 14.42154487
mean anomaly at epoch: 323.4762°
orbit number at epoch: 18661

The dashed part of the orbit path shows where the satellite is in the earth's shadow,  

DLR